This is the latest recevied weather packets stored in our database for station/object VR2MW-X. If no packets are shown the sender has not sent any weather packets the latest 10 day(s).
| Time | Temp. | Humidity | Pressure | Rain* | Wind** | Luminosity | Snow |
|---|---|---|---|---|---|---|---|
| 1777899960 | 22.78° C | 86% | 1015.1 hPa | - | - | - | - |
| 1777899349 | 22.78° C | 87% | 1015.1 hPa | - | - | - | - |
| 1777898739 | 22.78° C | 87% | 1015.1 hPa | - | - | - | - |
| 1777898128 | 22.78° C | 87% | 1015 hPa | - | - | - | - |
| 1777897518 | 22.78° C | 88% | 1014.8 hPa | - | - | - | - |
| 1777896907 | 22.78° C | 88% | 1014.7 hPa | - | - | - | - |
| 1777896295 | 22.22° C | 90% | 1014.6 hPa | - | - | - | - |
| 1777895684 | 22.22° C | 90% | 1014.5 hPa | - | - | - | - |
| 1777895073 | 22.22° C | 90% | 1014.6 hPa | - | - | - | - |
| 1777894462 | 22.22° C | 93% | 1014.6 hPa | - | - | - | - |
| 1777893241 | 22.22° C | 92% | 1014.7 hPa | - | - | - | - |
| 1777892630 | 22.22° C | 93% | 1014.7 hPa | - | - | - | - |
| 1777892020 | 22.22° C | 92% | 1014.7 hPa | - | - | - | - |
| 1777891409 | 22.78° C | 92% | 1014.6 hPa | - | - | - | - |
| 1777890799 | 22.78° C | 91% | 1014.6 hPa | - | - | - | - |
| 1777890189 | 22.78° C | 91% | 1014.5 hPa | - | - | - | - |
| 1777889578 | 22.78° C | 89% | 1014.5 hPa | - | - | - | - |
| 1777888967 | 22.78° C | 89% | 1014.1 hPa | - | - | - | - |
| 1777888357 | 23.89° C | 87% | 1014.1 hPa | - | - | - | - |
| 1777887746 | 23.89° C | 84% | 1014 hPa | - | - | - | - |
| 1777887135 | 23.89° C | 84% | 1013.8 hPa | - | - | - | - |
| 1777886525 | 23.89° C | 83% | 1013.8 hPa | - | - | - | - |
| 1777885914 | 23.89° C | 82% | 1013.6 hPa | - | - | - | - |
| 1777885303 | 23.89° C | 82% | 1013.8 hPa | - | - | - | - |
| 1777884693 | 23.89° C | 80% | 1013.7 hPa | - | - | - | - |
* Rain since midnight (hover to see other rain measurements)
** Current wind speed in m/s (hover to see current wind gust speed)